Location: Unspecified
(0.0000°N, 0.0000°E)
Time: 01:09:06
(UTC+00:00)

Vanguard 1 - Pass Details

Date: 17 February 2018
Orbit: 650 x 3833 km, 34.2° (Epoch: 21 February)

Event Time Altitude Azimuth Distance (km) Brightness Sun altitude
Exits shadow 03:35:33 19° 214° (SSW) 3,988 12.9 -38.6°
Maximum altitude 03:39:12 21° 194° (SSW) 4,217 13.2 -37.7°
Drops below altitude 10° 03:51:27 10° 151° (SSE) 6,174 14.5 -34.8°
Sets 03:59:22 0° 137° (SE) 7,661 15.4 -32.8°
